Weather History for KELY - April, 2014

Change the Weather History Date:

Sunday, April 27, 2014

  Actual Average Record
Temperature  
Mean Temperature 37 °F 45 °F  
Max Temperature 48 °F 61 °F 80 °F (1992)
Min Temperature 25 °F 30 °F 10 °F (1966)
Degree Days  
Heating Degree Days 28 20  
Month to date heating degree days 559 620  
Since 1 July heating degree days 6411 6847  
Cooling Degree Days 0 0  
Month to date cooling degree days 0 0  
Year to date cooling degree days 0 0  
Moisture  
Dew Point 26 °F    
Average Humidity 67    
Maximum Humidity 92    
Minimum Humidity 41    
Precipitation  
Precipitation 0.00 in 0.03 in 0.49 in (1963)
Month to date precipitation 1.06 0.84  
Year to date precipitation 3.21 3.22  
Snow  
Snow 0.00 in 0.20 in 6.00 in (1970)
Month to date snowfall 6.6 4.8  
Since 1 July snowfall 50.1 48.0  
Snow Depth 1.00 in    
Sea Level Pressure  
Sea Level Pressure 29.90 in    
Wind  
Wind Speed 7 mph (West)    
Max Wind Speed 26 mph    
Max Gust Speed 34 mph    
Visibility 10 miles    
Events      
T = Trace of Precipitation, MM = Missing Value Source: NWS Daily Summary

Daily Weather History Graph

Daily Weather History Graph

Search for Another Location

Airport or City:

Trip Planner

Search our weather history database for the weather conditions in past years. The results will help you decide how hot, cold, wet, or windy it might be!

Date:

Astronomy

Apr. 27, 2014 Rise Set
Actual Time 5:45 AM PDT 7:28 PM PDT
Civil Twilight 5:17 AM PDT 7:57 PM PDT
Nautical Twilight 4:42 AM PDT 8:32 PM PDT
Astronomical Twilight 4:05 AM PDT 9:09 PM PDT
Moon 4:48 AM PDT (4/27) 6:07 PM PDT (4/27)
Length of Visible Light 14h 40m
Length of Day
13h 43m
Waning Crescent, 3% of the Moon is Illuminated
Apr 27
Waning Crescent
Apr 28
New
May 6
First Quarter
May 14
Full
May 21
Last Quarter

Hourly Weather History & Observations

Time (PDT) Temp. Windchill Dew Point Humidity Pressure Visibility Wind Dir Wind Speed Gust Speed Precip Events Conditions
12:53 AM 28.9 °F 25.2 °F 26.1 °F 89% 29.86 in 10.0 mi West 3.5 mph - N/A   Mostly Cloudy
1:53 AM 27.0 °F 19.5 °F 25.0 °F 92% 29.85 in 10.0 mi SSE 6.9 mph - N/A   Clear
2:53 AM 27.0 °F - 24.1 °F 89% 29.86 in 10.0 mi Calm Calm - N/A   Clear
3:53 AM 26.1 °F 19.4 °F 24.1 °F 92% 29.86 in 10.0 mi SW 5.8 mph - N/A   Clear
4:53 AM 27.0 °F 20.5 °F 24.1 °F 89% 29.85 in 10.0 mi SSE 5.8 mph - N/A   Clear
5:53 AM 26.1 °F - 23.0 °F 88% 29.86 in 10.0 mi Calm Calm - N/A   Clear
6:53 AM 27.0 °F 20.5 °F 24.1 °F 89% 29.91 in 10.0 mi West 5.8 mph - N/A   Clear
7:53 AM 30.0 °F 26.5 °F 27.0 °F 88% 29.93 in 10.0 mi South 3.5 mph - N/A   Clear
8:53 AM 35.6 °F - 24.8 °F 65% 29.94 in 10.0 mi Calm Calm - N/A   Partly Cloudy
9:53 AM 39.0 °F 36.8 °F 25.0 °F 57% 29.91 in 10.0 mi SSW 3.5 mph - N/A   Mostly Cloudy
10:53 AM 42.1 °F - 28.0 °F 58% 29.89 in 10.0 mi Calm Calm - N/A   Mostly Cloudy
11:53 AM 43.0 °F - 25.0 °F 49% 29.89 in 10.0 mi Calm Calm - N/A   Overcast
12:53 PM 41.0 °F 32.5 °F 30.2 °F 65% 29.93 in 10.0 mi WSW 17.3 mph - N/A   Overcast
1:53 PM 46.0 °F 41.4 °F 30.0 °F 54% 29.88 in 10.0 mi WNW 9.2 mph - 0.00 in   Mostly Cloudy
2:37 PM 46.9 °F - 28.0 °F 48% 29.92 in 10.0 mi West 20.7 mph - N/A   Overcast
2:53 PM 44.1 °F 34.6 °F 28.0 °F 53% 29.89 in 10.0 mi WSW 26.5 mph 33.4 mph N/A   Overcast
3:53 PM 48.0 °F - 27.0 °F 44% 29.86 in 10.0 mi WNW 12.7 mph - N/A   Partly Cloudy
4:53 PM 45.0 °F 37.1 °F 26.1 °F 48% 29.88 in 10.0 mi WNW 19.6 mph - N/A   Mostly Cloudy
5:53 PM 45.0 °F 38.5 °F 23.0 °F 42% 29.89 in 10.0 mi WNW 13.8 mph - N/A   Scattered Clouds
6:53 PM 44.1 °F 39.0 °F 25.0 °F 47% 29.91 in 10.0 mi WNW 9.2 mph - N/A   Clear
7:53 PM 37.9 °F 32.1 °F 27.0 °F 65% 29.95 in 10.0 mi West 8.1 mph - N/A   Clear
8:53 PM 35.1 °F 30.1 °F 26.1 °F 70% 29.94 in 10.0 mi WNW 5.8 mph - N/A   Clear
9:53 PM 33.8 °F 27.7 °F 26.6 °F 75% 30.00 in 10.0 mi NW 6.9 mph - N/A   Clear
10:53 PM 32.0 °F 24.8 °F 26.6 °F 80% 30.00 in 10.0 mi West 8.1 mph - N/A   Clear
11:53 PM 32.0 °F 25.6 °F 26.1 °F 79% 29.96 in 10.0 mi West 6.9 mph - N/A   Clear